RH
79 80 87 96 97 93 95 88 76 70 78 96 100 92 82 72 68 67 67 72 82 90 88 81 76 75 73 68 66 68 70 68 62 61 68 77 77 73 69 68 68 67 64 63 69 73 73 74 74 74 71 65 68 74 76 77 74 69 64 60 56 54 52 48 46 43 39 37 36 35 31 29 28 24 21 18 15 13 11 9 8 7 7 8 8 7 7 6 6 6 6 7 8 8 8 9 10
90 90 93 99 100 99 99 91 79 70 75 93 101 105 100 80 67 62 64 70 74 82 88 86 85 83 79 78 80 81 77 70 66 69 78 84 82 77 74 71 67 65 67 72 77 80 84 84 80 76 69 64 68 73 78 79 75 71 67 62 58 54 51 47 44 40 37 35 34 33 29 27 25 23 20 18 15 14 12 10 9 8 8 8 8 6 6 8 7 6 6 7 8 9 11 11 13
100 99 98 101 104 102 101 95 87 73 74 93 101 107 102 83 70 62 67 84 92 94 99 97 92 88 87 91 91 85 76 69 66 69 74 77 78 78 75 72 71 73 79 84 87 89 87 83 78 73 69 70 77 83 85 85 80 74 68 62 58 52 48 45 41 38 35 33 32 30 27 25 23 21 18 16 15 13 12 11 9 7 7 7 8 9 8 8 7 7 6 6 8 10 12 14 17
103 102 100 102 104 104 103 99 90 72 77 97 103 100 89 79 72 62 65 86 103 106 107 101 93 92 96 100 100 92 80 73 72 73 74 74 74 74 72 72 76 79 82 85 86 84 80 80 78 71 76 87 92 91 87 84 79 72 67 61 54 50 47 43 40 37 34 32 30 27 25 22 20 19 16 16 14 13 12 10 10 8 7 7 8 10 11 10 8 8 8 7 9 10 13 16 20
105 104 103 103 103 104 102 101 93 74 80 100 104 99 91 93 90 83 84 93 104 107 105 101 99 101 103 106 108 102 87 77 77 78 75 72 71 73 77 80 84 88 91 93 89 84 85 85 79 68 73 87 87 83 79 77 74 69 63 56 52 49 46 42 39 35 33 30 28 26 23 20 18 16 15 14 13 13 13 10 10 9 7 7 7 7 10 13 11 9 8 7 8 10 13 16 20
106 103 102 104 101 103 103 106 97 76 85 102 101 95 96 104 103 100 102 104 106 105 104 104 104 102 99 98 95 88 79 70 68 70 72 75 79 84 91 95 97 99 101 99 94 91 94 91 83 71 65 72 77 77 77 75 71 65 58 53 50 47 44 40 36 33 31 28 26 23 20 18 16 14 12 13 15 16 18 17 15 15 12 9 8 7 8 11 13 12 9 7 7 9 13 15 16
107 102 102 105 100 101 104 107 94 80 95 104 92 82 84 97 102 102 105 104 102 100 98 96 91 87 87 87 87 85 83 79 77 80 83 88 93 97 101 103 102 102 101 98 97 97 97 92 84 73 63 67 78 81 78 72 66 61 57 53 48 44 41 37 33 31 28 25 22 20 17 15 13 12 11 12 15 14 17 20 21 22 24 22 18 13 10 9 10 14 13 9 8 8 13 16 17
107 99 102 105 102 100 102 105 88 83 100 103 96 88 86 94 98 100 99 95 91 89 88 87 86 89 92 91 90 90 90 94 98 99 99 99 100 101 101 101 101 101 101 100 100 98 94 86 76 71 68 76 82 80 73 67 63 59 54 49 44 40 37 34 31 27 24 21 18 16 14 12 11 11 10 10 11 11 12 16 20 24 36 45 41 30 18 12 8 11 14 13 12 11 12 16 16
100 93 102 101 102 100 103 106 85 84 101 106 106 98 96 99 98 98 97 96 96 95 95 96 96 96 92 82 80 82 85 93 103 104 103 103 101 101 101 101 101 101 102 100 99 97 90 78 71 73 76 81 79 72 68 64 59 53 48 44 40 37 33 30 26 22 18 16 14 13 11 11 10 11 11 10 9 10 11 13 15 19 35 49 50 45 30 18 12 10 13 14 16 19 19 17 16
91 89 102 99 102 100 103 105 83 84 101 104 105 100 101 102 99 102 105 105 100 97 97 97 96 93 90 87 90 92 94 97 102 102 101 103 101 101 101 100 100 100 100 98 97 91 81 72 73 79 79 77 72 68 65 58 52 47 45 42 38 33 29 24 20 18 15 13 12 11 12 11 10 11 11 10 9 10 10 12 13 15 27 35 37 43 38 27 20 18 19 17 19 28 31 25 24
80 86 102 100 101 100 103 102 84 85 91 88 91 98 103 101 102 105 103 100 96 94 96 98 98 97 98 97 96 97 100 101 101 101 100 101 100 100 100 99 99 98 97 93 86 77 72 73 77 78 74 71 67 64 57 50 47 46 44 39 34 28 23 20 17 15 14 13 12 11 12 11 10 10 10 10 9 9 9 10 12 15 20 24 27 32 38 36 31 28 27 27 28 34 36 30 27
84 91 100 100 101 100 102 102 94 91 90 89 95 102 104 101 103 101 93 88 88 91 94 98 100 99 99 96 93 96 100 100 101 101 100 101 101 102 101 100 99 97 91 82 74 71 74 76 75 72 69 66 62 56 51 49 49 47 42 34 27 23 19 17 15 15 14 13 12 11 11 10 9 9 10 10 9 8 9 11 12 15 17 21 24 25 28 32 35 35 31 32 38 42 41 34 27
96 98 100 101 100 100 98 97 99 98 97 101 103 104 104 102 101 93 84 82 84 91 96 98 101 103 104 101 100 101 102 102 101 100 101 103 103 102 100 97 94 89 79 73 73 74 75 73 69 67 63 59 55 54 54 54 52 45 35 27 22 19 18 17 16 14 13 12 11 11 10 10 10 9 10 11 10 9 10 13 14 16 19 22 25 27 26 23 26 37 39 35 38 45 43 38 34
100 100 100 100 100 101 99 97 100 100 100 101 101 102 103 102 100 92 85 88 93 98 101 99 101 103 103 103 102 101 102 101 100 101 101 100 98 95 92 87 82 78 74 73 74 72 70 67 63 59 56 54 57 60 60 56 49 38 27 22 20 19 18 16 15 12 12 11 11 11 11 12 11 10 11 12 12 11 12 14 15 17 20 25 29 34 41 35 24 31 46 48 44 45 45 41 42
100 100 100 101 101 101 100 100 100 101 103 102 101 100 100 100 99 97 95 98 100 100 100 100 101 101 100 100 100 100 100 100 100 98 92 88 86 83 81 80 79 78 77 74 71 68 64 60 57 56 57 61 64 65 61 52 39 28 23 23 21 20 18 15 13 12 12 12 13 14 13 14 13 12 12 13 13 13 14 14 16 18 19 25 32 40 50 53 42 33 41 55 56 53 55 54 50
101 100 100 101 102 101 100 100 99 102 104 103 100 99 100 100 99 100 100 100 100 100 100 101 100 100 100 99 100 100 98 96 91 84 81 82 80 79 81 85 85 81 76 72 67 63 60 60 61 64 67 69 68 64 54 40 28 24 24 24 21 18 16 16 15 14 13 14 16 16 16 16 14 13 13 13 15 14 14 15 16 18 20 22 28 37 46 53 54 48 42 50 64 68 67 67 61
101 100 100 101 102 101 100 100 100 102 102 101 100 100 100 99 100 100 100 101 101 99 98 97 95 95 95 95 94 91 88 83 79 80 84 84 80 84 87 86 83 77 72 68 65 65 67 69 71 73 73 71 66 54 40 30 26 27 25 22 20 18 18 19 18 18 17 17 19 19 17 17 15 14 14 13 15 15 15 15 15 17 20 21 23 28 38 45 51 58 56 53 65 78 77 75 72
101 100 100 100 102 103 101 100 103 105 102 101 102 102 102 103 102 100 99 99 96 91 87 85 83 84 85 84 83 82 81 81 85 90 90 85 83 85 84 82 78 74 71 70 72 74 76 76 77 77 73 66 54 40 32 31 31 27 23 22 23 22 22 23 22 22 20 20 21 20 18 18 17 15 14 14 15 16 16 16 15 16 17 20 22 24 29 37 45 57 69 72 73 79 84 83 80
100 99 100 100 101 102 102 101 103 103 98 97 99 100 100 98 95 91 89 86 84 83 79 79 82 86 88 88 88 89 89 93 98 95 89 85 83 82 82 81 78 76 77 80 81 80 81 80 78 72 63 51 40 34 34 34 31 26 25 26 29 29 26 26 26 25 22 21 21 22 21 20 18 16 15 14 15 17 17 17 16 15 16 17 20 23 24 29 38 50 63 77 84 85 86 87 86
99 98 99 100 100 99 99 99 97 94 89 89 91 91 91 90 90 89 88 87 87 88 88 91 94 97 97 98 98 99 100 100 97 88 83 83 83 83 83 82 81 83 85 84 84 83 82 78 70 60 48 40 37 38 37 33 30 30 31 32 34 34 31 30 28 26 25 23 22 22 23 23 22 19 17 16 16 17 17 18 17 15 15 15 17 20 23 24 30 43 52 63 79 88 89 87 85
99 98 98 98 100 101 100 99 97 96 94 94 94 94 95 96 97 98 97 98 97 98 99 101 102 101 100 100 102 103 100 94 88 85 85 86 86 85 84 85 87 88 86 85 84 81 75 67 56 47 41 40 41 39 35 33 35 36 38 39 38 38 36 33 30 29 28 27 26 24 24 24 24 23 21 19 19 18 18 18 18 17 16 15 16 16 19 22 23 34 48 57 69 83 90 90 85
100 100 101 100 100 101 100 102 101 100 100 100 100 100 100 100 101 101 100 100 100 100 100 99 101 102 101 101 103 100 93 88 88 90 90 89 88 88 88 89 89 87 85 83 79 72 63 54 47 44 43 43 41 37 36 37 40 42 43 44 44 43 41 38 35 33 32 32 30 29 28 26 26 25 24 22 21 21 21 20 20 18 17 16 16 16 16 19 21 25 37 54 68 78 85 89 89
101 100 101 101 101 102 104 103 101 100 102 103 102 101 101 101 102 101 101 102 100 97 94 94 98 101 101 98 96 92 90 91 93 93 92 92 91 91 89 88 86 84 82 76 69 61 53 49 48 48 46 43 39 38 40 42 44 46 48 50 50 51 51 48 45 42 39 37 34 33 33 31 30 30 27 25 24 23 23 24 24 21 20 19 17 16 16 17 20 21 26 39 59 75 81 83 87
98 96 96 94 91 94 100 105 105 102 102 102 101 101 103 104 105 103 100 97 93 90 88 89 93 95 94 92 91 92 95 97 96 95 95 94 92 90 88 86 84 80 74 66 59 56 54 54 53 50 47 45 44 46 48 49 50 53 55 57 57 59 60 60 58 55 53 50 45 42 39 37 36 35 32 28 26 26 26 26 27 26 23 23 21 19 17 16 18 21 22 26 40 62 75 80 82
81 78 76 75 75 81 90 97 97 92 92 96 98 102 103 101 98 92 88 86 85 86 87 90 93 94 95 96 97 99 100 99 97 95 93 91 89 87 85 81 76 70 64 60 58 58 58 57 55 53 52 52 54 56 58 59 59 61 62 63 64 64 65 66 66 65 65 63 60 57 52 47 43 40 38 33 28 26 27 28 28 29 27 26 25 24 22 19 18 20 23 24 28 42 59 71 78
77 79 84 88 89 88 86 85 85 88 94 99 102 102 98 92 88 87 88 90 92 94 95 97 98 100 101 100 101 101 100 97 94 91 89 87 84 81 77 72 67 64 62 61 61 60 59 57 57 59 61 63 65 65 65 66 67 68 68 69 70 70 69 70 70 70 70 68 66 65 63 59 54 48 45 41 36 30 27 28 28 30 32 30 29 28 27 24 21 19 21 25 26 30 40 55 70
96 96 94 90 86 83 83 87 93 99 102 103 105 103 98 95 95 98 98 98 100 100 100 101 101 102 102 102 101 99 96 93 90 87 84 80 76 72 68 65 64 63 63 63 61 60 61 62 64 67 69 71 71 70 69 70 70 70 71 71 71 71 70 70 71 71 70 68 66 65 64 63 61 57 54 50 45 40 33 29 27 28 31 33 33 31 30 29 27 23 21 22 26 28 31 39 54
82 80 79 81 85 92 97 101 104 104 104 103 105 104 101 100 100 100 100 102 104 101 101 101 101 102 102 100 98 95 92 89 85 80 75 69 66 64 63 64 64 63 62 62 61 63 66 68 71 73 73 72 71 70 70 71 71 71 70 69 68 66 65 65 65 65 65 64 62 60 60 60 59 58 57 55 51 46 41 36 31 29 29 31 34 34 33 32 32 30 27 24 24 27 29 32 40
73 80 88 94 98 100 99 98 98 99 101 101 101 100 100 100 101 102 103 106 106 102 102 102 102 103 101 97 94 91 86 80 74 68 63 60 59 60 61 61 62 62 63 65 67 69 72 74 75 75 73 71 70 70 70 71 71 71 70 67 65 63 60 58 57 57 56 56 54 53 53 52 52 51 51 51 50 47 43 39 36 32 30 30 32 35 34 34 35 34 34 31 28 27 28 30 33
84 88 90 90 90 91 92 93 95 97 100 100 101 103 105 105 106 106 105 105 104 102 103 102 102 100 96 91 86 81 75 68 62 58 56 56 57 58 59 61 64 67 69 72 74 76 77 77 77 76 75 74 73 73 73 73 72 71 70 67 65 63 60 58 55 53 51 49 47 45 44 44 43 43 43 42 43 43 41 38 35 32 30 29 31 34 35 35 36 36 37 38 36 32 30 30 30
87 88 89 91 94 98 98 100 102 101 103 103 105 108 108 108 107 105 103 103 103 103 103 100 97 92 86 81 76 71 66 60 56 54 54 55 57 61 64 68 71 74 76 78 80 80 80 80 79 79 77 77 76 76 76 75 74 72 71 69 67 65 63 61 58 55 52 48 45 42 40 38 37 37 36 36 35 36 37 36 33 30 27 27 27 30 33 35 36 37 39 41 41 38 36 33 31
97 98 99 99 99 99 98 99 99 99 101 102 105 107 106 106 105 103 102 102 101 99 95 90 84 79 75 72 70 67 63 58 55 54 55 59 65 69 72 75 77 80 82 83 83 83 83 82 80 79 78 78 77 77 77 76 74 72 71 69 67 65 63 60 58 56 54 50 47 44 41 37 35 34 32 32 32 31 31 32 31 29 27 24 23 24 27 30 33 35 38 42 43 42 40 39 36
88 88 88 88 87 87 89 91 94 96 98 99 100 99 97 97 95 92 91 88 84 80 76 74 72 71 70 69 68 64 59 55 54 57 63 69 73 75 77 80 83 86 87 86 86 85 85 83 82 81 80 80 80 78 77 75 72 69 67 66 64 62 60 58 56 53 51 48 45 42 39 37 34 32 30 28 28 27 26 27 27 28 27 25 23 22 22 23 26 28 33 39 44 45 44 42 41
69 71 73 75 76 78 81 84 86 86 84 82 81 78 76 75 74 72 72 71 69 69 70 71 71 72 71 68 64 59 56 58 63 69 74 77 78 81 84 87 90 92 91 90 89 88 87 85 84 84 83 82 80 77 74 71 68 66 65 63 62 60 59 56 53 49 46 43 40 38 35 33 31 29 27 25 24 23 23 23 23 24 25 25 24 23 22 21 21 22 24 29 36 43 46 46 45
62 64 65 66 67 67 67 67 66 65 65 64 64 64 64 65 65 67 69 70 71 73 74 75 74 72 68 62 59 59 64 72 78 80 82 84 87 91 94 96 97 96 95 92 91 90 89 88 86 84 81 79 76 73 70 68 66 64 62 59 57 55 53 50 47 44 42 38 35 33 30 28 26 25 23 22 21 20 20 20 20 21 22 23 24 24 23 21 20 20 20 21 24 32 40 46 48
55 55 55 55 54 54 56 57 58 60 63 66 68 70 71 73 75 76 76 75 76 76 75 72 68 64 61 61 65 72 81 85 85 86 88 92 96 99 101 100 99 96 94 92 90 89 88 86 84 81 78 75 73 71 68 66 63 60 57 54 51 48 44 40 37 34 31 30 27 25 24 23 21 20 20 19 19 19 19 19 19 19 20 21 22 24 24 24 22 20 19 19 19 21 27 36 44
52 53 54 56 57 60 63 66 69 72 77 81 83 85 85 85 84 82 81 79 77 74 69 65 63 65 68 75 82 87 90 90 89 91 95 99 101 102 100 97 95 94 92 89 87 86 87 85 83 81 78 76 73 69 65 60 56 52 47 44 40 36 33 29 27 24 22 21 20 19 18 18 18 18 18 18 19 20 20 20 20 19 18 18 19 20 22 23 24 23 21 19 19 18 19 23 32
64 66 69 71 73 76 79 82 86 89 92 92 92 92 89 85 84 83 81 78 72 68 66 67 71 77 82 87 91 91 92 92 93 95 98 102 102 98 96 94 93 91 88 87 86 87 88 86 84 82 78 73 67 60 54 49 45 41 37 33 31 27 25 22 20 19 18 17 16 16 17 17 18 19 19 20 20 21 21 21 21 21 20 19 18 18 19 20 22 23 23 22 20 19 19 18 21
84 85 86 87 88 90 92 95 97 97 97 94 91 88 84 82 81 79 75 70 67 66 70 75 79 83 86 88 90 91 92 94 96 99 100 99 98 95 94 93 90 88 87 88 89 89 89 86 83 77 70 61 53 46 42 39 36 33 31 28 26 24 21 18 17 15 14 14 14 15 16 17 18 20 21 22 24 25 25 25 25 24 24 23 21 20 19 19 19 20 22 23 22 20 19 19 19
97 97 98 99 99 99 100 99 99 97 95 92 88 84 81 77 73 70 68 68 69 72 75 78 80 83 85 87 90 92 94 96 98 99 98 96 95 94 92 91 90 90 91 92 91 89 85 80 72 63 55 48 42 39 36 35 33 31 29 26 23 20 17 15 13 13 14 15 16 17 19 19 20 21 22 23 24 25 27 28 28 27 27 25 24 23 22 21 21 21 20 21 22 22 20 19 18
98 99 99 99 97 96 96 95 94 93 93 90 85 79 73 69 70 71 72 73 74 77 80 81 81 83 85 88 91 94 97 98 99 99 97 96 95 94 93 93 94 94 93 90 86 81 73 64 56 50 46 42 38 36 35 33 31 29 25 21 18 15 14 15 16 18 19 21 22 22 22 22 22 22 21 21 20 21 21 22 23 24 24 23 23 21 21 21 21 21 21 21 22 23 23 21 18
89 89 89 88 88 89 90 91 91 90 89 83 77 74 70 71 76 76 75 77 79 82 84 84 84 87 91 95 98 100 100 99 98 98 97 97 96 96 96 96 94 91 86 81 74 66 59 52 48 45 42 39 36 35 33 30 26 22 18 16 16 17 19 22 24 25 25 24 24 22 21 20 19 18 17 16 15 15 15 15 15 15 16 17 17 17 17 16 17 17 18 19 20 22 23 24 23
82 83 84 86 87 87 87 86 84 82 81 77 75 77 75 74 76 75 75 79 81 83 85 89 92 97 101 103 104 102 100 99 98 97 98 99 98 96 93 89 85 79 73 66 59 53 49 46 43 41 38 37 35 32 28 24 20 17 17 19 22 25 27 28 27 27 25 23 21 19 17 16 14 14 13 12 12 12 12 12 12 12 12 12 12 13 14 13 13 13 13 14 15 17 19 22 24
87 86 85 85 83 81 79 76 77 78 80 82 82 82 79 75 74 74 75 78 81 85 92 97 100 103 104 104 103 101 101 101 101 99 97 95 92 87 82 75 68 62 56 51 48 45 43 41 39 38 37 34 30 26 21 19 19 21 24 27 28 28 27 26 23 22 20 18 16 14 13 12 12 11 10 10 10 10 11 11 12 12 12 13 12 12 13 13 13 12 12 12 12 12 13 15 18
82 79 77 76 75 75 76 78 81 80 79 82 81 81 81 77 75 76 78 82 88 93 97 101 102 104 105 104 103 103 103 101 98 93 88 82 77 71 65 58 52 47 45 43 41 40 39 38 37 35 31 27 23 20 20 21 24 26 27 27 26 24 21 18 16 15 14 13 12 11 11 10 10 10 10 10 9 10 10 10 11 11 11 12 12 12 12 12 12 12 12 12 11 12 12 12 13
70 71 72 73 75 78 79 78 77 74 76 82 84 84 85 80 77 81 85 90 94 98 100 103 104 105 105 104 102 98 94 89 83 78 72 65 59 53 49 46 43 41 40 39 39 38 36 34 31 27 23 21 21 23 26 27 26 25 23 21 18 16 14 13 12 11 11 10 9 9 9 9 9 9 9 9 9 10 10 10 10 10 11 11 11 12 12 12 12 12 12 12 12 12 12 12 13
68 69 70 72 74 74 72 72 75 80 86 91 91 88 86 84 82 86 92 95 97 99 101 103 103 102 100 96 91 85 80 74 68 61 55 49 45 43 42 41 40 39 38 37 35 33 30 26 23 21 21 24 27 29 29 27 23 20 17 15 14 13 11 11 10 10 9 9 9 9 9 9 9 10 10 10 10 10 10 10 10 10 11 11 11 11 12 13 13 13 13 13 13 14 15 15 15
61 63 64 66 67 67 73 80 87 93 94 92 89 86 87 90 90 92 94 95 96 97 97 96 96 94 89 83 77 71 65 58 52 47 44 43 42 41 40 39 38 37 35 32 30 26 23 22 23 25 28 30 30 28 25 21 18 15 14 12 11 11 10 10 9 9 9 8 8 8 8 8 8 9 9 10 10 10 10 9 9 9 9 9 9 9 10 10 11 12 12 13 13 14 15 15 16
59 62 64 68 71 76 85 91 92 93 92 89 87 88 91 94 93 92 92 90 90 91 88 85 82 77 70 64 59 54 50 46 44 43 43 42 40 39 37 35 33 31 29 27 25 23 23 26 29 32 32 30 26 23 19 17 15 13 12 11 11 10 10 10 9 8 9 8 8 8 8 8 8 8 8 8 8 8 8 8 7 8 8 8 8 8 8 7 7 8 8 9 10 11 12 13 13
62 65 68 72 76 80 83 85 85 86 86 85 84 86 88 90 87 85 84 82 79 75 71 66 62 57 52 48 46 45 45 44 44 42 40 38 36 33 32 30 29 27 25 24 24 27 30 33 33 31 28 23 20 17 15 14 13 13 12 12 11 10 10 9 9 8 8 9 9 8 8 8 7 7 7 6 6 7 7 7 6 6 6 6 6 6 7 6 6 6 5 6 6 7 8 8 10
59 61 65 68 70 71 71 71 73 76 78 78 78 78 78 79 77 72 69 65 61 57 54 52 50 48 46 45 45 45 44 42 40 38 36 34 32 31 30 28 26 24 24 27 30 33 34 32 28 24 21 17 15 14 14 13 13 13 12 12 11 10 9 9 9 9 9 9 9 9 9 9 8 8 7 6 5 5 6 6 6 5 5 5 5 5 5 5 6 5 5 5 5 5 6 6 6
48 50 54 56 56 55 56 57 60 64 67 68 67 66 63 61 58 54 52 51 48 48 49 49 48 46 45 45 44 42 40 38 38 37 36 34 33 31 29 26 25 27 30 33 33 31 28 24 20 17 16 15 15 14 14 14 14 13 13 12 11 10 10 9 9 9 9 9 9 9 9 9 9 8 7 7 6 5 5 6 6 5 5 5 4 4 4 4 5 5 5 5 5 5 5 5 5
37 37 40 41 42 44 46 48 50 52 55 55 53 53 50 49 48 46 46 48 47 48 49 48 47 45 44 43 41 39 38 37 37 36 35 34 31 28 26 28 32 35 35 33 29 25 22 19 17 16 16 16 16 16 15 14 13 13 12 11 10 9 8 8 8 8 8 8 7 7 7 7 7 7 6 6 6 5 5 5 6 6 5 5 4 4 4 3 3 4 4 4 5 5 5 5 5
35 35 37 38 40 42 43 44 45 46 47 48 48 49 47 46 46 44 45 46 45 46 48 47 46 44 43 42 40 38 37 36 35 34 32 29 27 29 33 38 40 39 35 29 24 21 19 18 17 17 17 16 15 14 13 12 11 10 10 9 8 8 7 7 7 6 6 6 6 5 5 5 5 5 4 4 4 4 4 4 4 4 4 4 4 3 3 3 3 3 3 3 4 4 4 5 5
36 37 37 39 40 41 41 43 43 43 43 44 44 46 46 44 43 42 43 43 43 45 46 46 44 43 42 41 38 37 36 35 34 31 28 29 34 41 45 44 40 34 28 22 19 18 17 17 17 16 15 14 13 12 11 10 10 9 9 8 7 7 6 6 6 6 5 5 5 4 4 4 4 3 3 3 3 3 3 3 3 3 3 3 3 3 3 3 3 3 3 3 3 3 3 3 4
34 35 36 36 37 38 38 39 39 39 39 40 41 43 44 43 40 42 43 42 43 44 45 44 43 42 41 40 38 37 35 32 29 29 33 40 46 47 44 38 31 25 20 18 17 17 17 17 16 16 14 13 11 11 10 10 9 9 8 7 7 6 6 7 6 6 5 4 4 3 3 3 3 3 3 3 3 3 3 3 3 3 4 3 3 3 3 3 3 3 3 3 3 3 3 3 3
31 32 32 33 33 34 35 35 36 36 37 37 38 41 45 43 41 43 44 42 43 45 45 43 43 42 41 39 36 33 30 29 32 39 44 46 44 38 31 26 21 19 18 18 18 18 18 17 15 14 13 12 11 10 10 9 9 9 8 7 7 7 7 7 6 5 4 4 3 3 3 3 3 3 3 3 3 3 3 3 3 3 3 4 4 3 3 3 3 3 3 3 3 3 3 3 3
29 29 30 30 30 31 32 33 34 34 35 37 37 41 46 43 41 43 42 41 43 44 43 43 42 41 37 32 29 29 32 38 43 44 42 37 31 25 21 18 17 17 17 18 18 17 16 15 13 12 11 11 10 10 10 10 9 9 8 7 8 8 7 7 6 5 4 3 3 3 3 3 3 3 3 3 3 3 3 3 3 3 3 3 4 3 3 3 3 3 3 3 3 3 3 3 3
Wind_Speed
63 61 61 60 59 59 59 58 59 61 62 62 62 62 62 62 62 64 66 67 68 68 68 68 67 66 66 66 68 69 71 71 70 70 69 69 70 71 71 71 72 73 74 75 76 76 77 78 79 82 86 86 80 78 77 77 77 78 78 78 78 78 78 78 78 76 74 72 71 70 69 67 67 69 71 71 71 71 70 69 68 66 64 64 65 66 67 68 70 71 71 71 72 74 76 78 82
63 63 63 62 61 60 60 60 60 62 63 64 63 62 62 63 64 64 65 66 67 68 69 68 67 66 67 69 70 70 71 71 71 70 70 70 71 72 73 73 74 75 76 76 77 78 78 80 82 86 87 84 80 78 78 78 78 78 79 79 79 80 79 79 78 77 75 74 72 71 70 68 67 68 70 71 72 72 72 71 70 68 67 66 67 66 66 69 71 71 71 70 70 71 72 74 76
65 65 65 64 64 64 63 63 62 63 64 64 64 63 63 64 65 64 64 66 67 67 67 67 68 69 70 71 71 70 70 71 72 72 72 72 73 74 76 76 77 77 77 77 78 79 80 83 85 87 85 80 78 78 78 79 80 80 81 81 81 81 80 79 78 77 76 75 73 72 70 69 68 68 69 70 71 72 72 72 72 70 69 68 67 67 68 70 71 71 71 69 69 71 71 73 74
66 67 67 67 67 67 66 65 64 64 65 65 64 65 65 66 66 65 65 65 66 67 67 69 70 71 70 70 70 70 71 72 73 74 74 75 76 77 79 79 79 79 79 80 81 82 83 86 87 86 81 78 78 79 80 81 82 83 83 83 83 81 80 79 78 78 77 76 75 73 72 70 68 68 68 69 71 72 72 73 73 72 70 69 68 68 69 70 71 71 72 71 69 71 72 72 74
67 68 69 70 70 70 68 66 65 66 66 65 64 66 67 67 67 67 66 66 67 67 68 69 68 68 68 69 70 71 72 74 75 75 76 77 79 80 81 82 81 82 82 82 83 84 86 87 87 86 82 80 81 81 82 83 84 84 85 84 83 82 81 80 79 78 78 77 76 74 73 72 70 69 68 68 70 71 71 72 72 73 71 70 70 70 69 70 72 73 73 73 71 71 74 74 75
68 69 70 71 72 72 70 68 67 67 67 66 66 66 67 67 67 67 67 67 67 68 69 68 68 68 69 70 72 73 75 76 76 77 78 79 81 82 83 83 84 84 84 84 85 86 87 88 90 90 86 83 83 83 84 84 85 85 85 85 84 83 82 81 80 79 78 77 77 76 74 73 71 70 69 67 68 69 69 69 70 71 71 71 71 72 71 70 72 73 74 75 74 73 74 77 78
70 71 71 72 72 72 71 69 68 69 69 68 68 68 68 68 68 68 68 69 70 71 71 71 70 71 71 72 74 76 77 77 77 78 79 81 82 84 84 85 85 85 85 86 87 89 90 91 93 92 87 84 83 84 85 85 85 85 85 84 84 83 82 81 80 79 78 77 77 76 75 73 71 70 69 67 67 68 67 67 69 69 69 71 71 72 73 73 73 73 74 75 76 75 75 78 79
72 72 73 73 73 73 71 69 69 70 70 69 69 69 69 69 69 69 70 71 71 71 70 70 71 72 73 74 75 76 76 77 78 79 81 82 83 84 84 85 85 86 87 88 90 91 92 94 94 90 85 84 85 85 86 86 85 85 85 84 84 83 81 80 80 79 78 77 76 76 75 72 70 69 69 68 67 66 66 67 69 68 66 68 69 72 74 75 75 74 74 74 75 77 77 78 79
73 73 74 74 74 73 72 70 70 71 71 70 71 71 72 70 69 67 68 68 69 70 71 73 75 76 76 77 77 77 78 79 80 81 82 83 83 84 85 85 87 88 90 91 92 93 94 95 91 86 85 85 86 86 85 85 85 85 85 84 84 82 81 80 79 78 77 76 75 74 73 71 68 66 67 67 66 65 64 66 69 69 67 69 70 73 76 76 76 75 74 75 74 76 77 79 80
75 75 75 75 75 74 73 72 72 72 72 72 72 73 73 71 69 68 69 71 73 75 76 77 77 77 76 76 76 77 78 79 80 82 83 84 85 86 87 89 91 92 93 93 94 95 94 91 87 86 87 87 86 86 86 86 86 86 85 84 83 82 81 80 78 77 76 74 73 72 70 69 66 63 65 66 66 64 63 65 68 70 71 73 74 75 78 77 77 76 75 76 75 74 77 79 80
77 76 76 76 75 75 74 74 75 75 74 75 75 75 74 72 72 74 76 77 78 78 77 76 76 76 76 76 78 78 79 80 82 83 85 87 88 90 91 92 93 93 94 94 95 94 91 88 87 87 87 87 87 87 87 87 87 86 85 84 82 81 80 79 78 76 75 73 71 69 68 67 65 61 62 65 65 64 63 64 67 70 73 75 76 77 78 79 78 77 77 77 76 76 78 80 81
76 75 75 75 75 74 75 75 76 76 76 76 76 76 75 76 78 80 81 82 82 82 80 80 80 81 81 82 83 83 84 85 86 87 88 90 91 92 93 94 94 94 94 94 93 90 88 87 87 86 86 87 88 88 88 88 88 87 85 84 82 81 79 78 76 75 73 71 69 67 66 66 64 60 59 62 64 63 62 64 66 69 74 76 77 78 79 80 80 80 79 78 78 78 80 82 84
73 74 74 74 75 76 76 76 75 74 74 74 74 75 76 78 80 81 83 83 83 84 84 84 84 84 85 85 85 86 86 87 88 89 90 91 92 93 94 95 95 94 94 92 89 88 87 86 86 86 87 87 88 89 90 90 89 88 86 84 82 80 78 77 75 73 71 70 68 66 66 65 63 60 58 60 63 63 63 63 66 69 72 75 77 78 79 80 80 81 81 80 79 80 82 83 85
72 72 73 74 75 76 76 75 73 73 74 75 75 76 78 79 80 81 83 83 83 84 84 84 84 84 85 86 87 87 88 88 89 90 91 92 93 94 95 95 95 93 91 89 88 87 87 86 87 87 87 88 89 91 91 91 89 88 86 84 81 79 77 75 74 72 70 68 66 65 65 64 63 59 57 59 61 62 63 63 65 68 71 75 77 78 79 80 80 80 82 82 81 81 83 84 85
75 74 74 75 76 75 75 75 75 76 77 79 80 81 81 81 81 81 81 81 82 83 83 84 84 85 86 88 88 89 90 90 91 92 92 93 93 94 94 93 91 90 88 87 87 87 87 87 88 88 89 90 91 92 92 91 89 87 85 83 80 77 75 74 73 71 69 67 65 64 64 63 61 59 56 57 59 61 62 63 64 67 70 74 77 79 79 81 81 80 81 82 83 82 82 83 85
80 78 77 77 77 76 76 77 78 79 80 81 82 82 81 81 80 80 81 81 82 83 84 85 86 87 88 89 90 91 92 92 92 93 92 92 92 91 89 88 87 86 86 87 87 88 89 89 90 91 92 92 92 92 91 90 89 86 83 81 79 77 75 74 73 71 69 66 63 63 63 62 60 58 56 55 57 59 61 63 63 66 70 73 76 79 81 82 82 82 82 83 84 84 83 84 86
82 81 80 79 78 77 77 78 78 78 78 79 79 79 78 78 79 80 82 83 84 85 86 87 88 89 90 91 91 92 92 93 93 92 92 91 89 87 86 86 86 86 87 88 89 90 91 92 93 93 93 93 93 91 90 89 87 84 82 79 78 76 74 73 72 70 69 66 63 62 62 60 59 57 55 54 55 57 60 63 63 65 69 72 74 77 81 83 83 84 84 84 85 86 86 86 87
83 83 83 82 81 80 80 81 81 80 80 80 79 79 80 81 83 84 86 87 88 89 89 89 89 90 90 90 91 92 92 93 93 92 91 90 88 87 86 87 87 88 89 90 91 92 93 94 94 94 94 93 92 91 89 86 84 83 81 78 77 76 74 72 71 69 68 65 63 62 61 60 59 57 56 54 55 56 59 62 64 65 67 70 73 76 80 83 84 84 85 86 86 87 88 88 89
85 85 85 84 84 84 85 86 86 86 86 86 86 86 88 89 90 91 92 92 92 91 90 90 89 88 89 90 91 92 93 94 93 93 91 90 89 88 88 88 89 90 91 92 93 94 94 94 94 94 93 92 91 89 87 84 82 81 80 78 76 75 74 72 71 70 68 65 63 62 61 61 60 58 56 55 56 56 58 61 64 65 67 69 72 75 78 82 84 86 87 88 89 89 90 90 91
86 87 86 85 85 85 86 87 88 89 89 89 89 90 90 90 91 91 90 90 90 90 89 89 88 88 90 91 92 93 94 94 93 92 90 89 89 89 89 90 91 91 92 93 94 95 94 94 93 93 92 91 89 87 85 83 81 80 78 77 76 75 74 73 72 70 68 67 65 63 61 61 60 59 58 57 57 58 58 61 64 66 68 69 71 74 77 81 84 87 89 89 90 91 91 92 93
88 88 87 86 86 85 86 87 87 87 87 86 86 86 86 86 87 87 88 88 89 90 90 90 91 92 92 92 93 93 93 92 91 90 90 90 90 91 91 92 93 93 94 95 95 94 94 93 92 92 90 89 87 85 84 82 80 79 77 76 75 74 74 73 72 71 69 68 67 65 64 62 61 60 59 58 59 59 60 61 64 66 68 70 72 74 77 80 83 87 90 90 91 92 93 94 94
89 89 88 87 87 87 87 88 88 88 87 86 85 84 84 85 86 88 89 90 91 93 93 94 94 94 93 92 92 92 91 90 91 92 92 93 93 93 94 94 94 95 95 94 94 93 92 92 91 90 89 87 86 84 82 81 79 77 76 75 74 73 73 73 73 72 70 70 69 67 67 65 63 62 61 60 60 61 61 62 64 66 68 70 72 74 77 80 82 86 89 91 93 94 95 96 96
90 90 90 90 89 89 90 90 89 89 88 88 88 87 87 88 89 90 91 92 94 94 93 92 91 91 91 90 90 90 91 92 93 94 95 95 95 94 94 95 95 94 94 93 92 92 91 90 89 88 87 86 85 83 82 80 78 76 75 74 73 72 72 73 73 73 72 71 71 70 69 68 66 65 64 63 62 62 62 63 65 66 68 70 72 74 77 80 83 85 88 91 94 96 97 97 97
90 90 90 90 89 88 88 88 88 89 89 89 88 88 88 89 90 91 92 93 93 91 89 88 88 88 89 89 90 91 92 94 95 95 95 94 94 94 94 94 94 93 92 91 90 89 89 88 87 86 85 85 84 83 81 79 78 76 75 74 73 73 72 72 73 73 73 73 73 72 72 71 69 69 68 66 65 64 65 65 66 67 69 70 72 74 77 80 82 85 87 90 93 97 99 99 99
84 85 85 84 84 84 85 86 87 87 86 85 85 85 86 87 88 88 89 89 88 87 86 87 87 88 89 90 92 93 94 95 95 94 94 94 94 93 93 93 92 91 90 89 88 87 86 86 85 85 84 84 83 82 81 80 79 78 76 75 75 75 74 74 74 74 74 74 75 74 74 74 73 72 72 71 69 67 67 68 68 69 70 71 73 75 77 79 82 85 87 89 92 96 99 101 101
81 81 82 83 83 84 85 85 84 83 82 82 82 83 83 85 86 86 86 85 85 85 86 87 88 90 91 93 94 95 95 95 94 94 93 93 93 92 92 91 90 89 88 87 86 86 85 85 84 83 83 82 82 82 81 81 80 80 79 78 77 77 77 77 77 76 76 77 77 77 77 77 77 76 75 75 74 73 71 71 71 71 72 73 74 76 77 79 82 85 87 89 91 94 98 101 103
83 84 84 84 83 82 82 81 81 81 82 83 83 83 84 86 87 88 88 88 87 87 88 90 91 92 93 94 94 94 94 94 93 93 93 92 91 91 90 89 88 88 87 86 85 85 84 84 83 83 82 82 82 82 82 81 81 81 80 80 80 80 80 79 79 79 79 79 79 79 79 80 80 80 79 78 78 78 77 75 74 74 74 74 75 77 79 80 82 85 87 89 91 94 96 99 102
83 83 81 80 78 78 78 79 80 81 82 83 84 85 86 88 89 90 91 91 91 91 91 92 93 93 94 94 93 93 93 92 92 92 91 91 90 89 89 88 87 86 86 85 84 84 84 83 83 83 83 83 83 83 83 82 82 82 82 82 82 82 82 82 82 82 82 82 82 82 82 82 83 83 82 82 82 82 81 80 79 78 77 77 77 79 81 81 83 85 88 90 92 94 96 97 100
78 77 75 75 74 74 75 77 79 80 82 84 85 86 88 89 90 90 91 91 91 92 92 92 92 92 92 92 92 91 91 91 90 90 90 89 89 88 87 87 86 85 85 84 84 84 84 84 84 84 84 84 84 84 84 84 84 84 85 85 85 86 86 86 85 85 85 84 84 85 85 85 85 85 85 85 85 85 85 84 84 82 81 80 80 81 82 83 84 86 88 90 92 94 96 97 99
73 73 73 73 74 75 76 77 79 81 83 85 86 86 87 88 88 88 89 89 90 90 91 91 91 91 91 91 90 89 89 89 89 89 89 88 88 87 86 86 85 85 84 84 84 84 84 84 85 85 85 85 85 85 85 85 86 86 87 87 88 88 88 89 88 88 88 88 87 87 87 87 87 87 87 87 87 87 88 88 88 87 86 84 83 84 85 85 86 87 89 91 93 95 96 98 100
71 73 74 75 76 77 79 80 81 81 82 83 83 83 83 84 85 86 86 87 88 88 89 89 89 89 89 89 88 88 88 88 88 88 88 87 86 86 85 85 84 84 84 84 84 85 85 85 85 86 86 87 87 87 87 87 88 88 89 89 90 90 90 90 91 91 91 91 91 91 90 90 90 89 89 89 89 89 89 90 90 90 90 88 87 87 87 88 88 89 90 92 94 96 98 99 100
72 73 75 76 77 77 78 79 79 78 78 79 80 80 81 82 83 84 84 85 86 87 87 87 87 87 87 87 87 88 88 88 88 87 86 86 85 85 84 84 84 84 85 85 85 86 86 87 87 88 88 88 88 88 89 89 90 91 91 91 92 92 92 93 93 94 94 95 95 95 94 94 93 92 92 91 91 91 91 91 92 93 92 92 91 90 90 91 91 91 92 93 96 98 99 100 101
71 72 73 74 75 74 75 75 75 75 76 77 78 79 80 81 82 83 83 84 85 86 86 86 86 86 86 87 88 88 88 88 87 86 85 85 84 84 84 85 85 85 86 86 87 88 88 89 89 90 90 90 91 91 91 92 92 93 93 94 94 95 95 96 96 97 97 97 98 98 98 97 97 96 95 94 94 93 93 93 93 94 95 95 94 93 93 94 94 94 94 95 97 99 101 102 103
68 69 70 71 72 72 72 72 73 74 75 76 77 78 79 80 81 82 83 83 84 84 84 84 85 86 87 87 88 88 88 86 85 85 84 84 84 85 85 85 86 86 87 88 89 90 90 91 91 92 92 93 93 94 94 95 95 96 96 96 97 97 98 99 99 100 100 100 100 100 100 100 99 98 98 97 96 96 95 95 95 95 96 96 97 96 96 96 96 96 96 97 98 100 102 104 104
67 68 69 70 71 71 71 71 72 74 75 75 77 77 78 79 80 81 82 82 83 83 84 84 85 86 87 88 88 87 85 84 84 83 84 84 85 85 86 86 87 88 89 90 91 92 92 93 94 94 95 96 96 97 97 98 98 98 99 99 99 100 101 101 102 102 102 102 102 102 102 102 101 100 100 99 98 97 97 96 96 96 97 97 98 98 99 99 99 99 99 99 100 101 103 105 106
66 67 68 69 70 70 70 71 71 72 73 74 75 76 77 79 80 81 81 82 83 83 84 85 87 87 87 87 85 84 83 83 83 84 84 85 86 86 87 88 89 91 92 93 94 94 95 96 97 98 98 99 99 100 100 100 100 101 101 101 102 102 102 103 103 103 103 103 103 103 103 102 102 102 101 100 100 99 98 98 98 97 98 98 99 99 100 101 102 102 102 102 102 103 103 105 108
64 65 66 67 68 68 68 69 70 71 71 73 74 76 77 79 80 81 82 83 84 85 86 87 87 86 85 84 83 82 83 83 84 85 85 86 87 88 89 91 92 93 94 95 96 97 98 99 100 101 101 102 102 103 103 103 103 103 103 103 103 103 103 103 103 103 103 103 103 103 103 103 103 102 102 102 101 101 100 99 99 99 99 99 100 101 101 102 103 104 104 104 104 105 105 106 108
62 63 64 66 66 67 68 69 69 70 72 73 75 77 79 80 81 82 83 84 85 86 86 85 84 83 83 82 82 82 83 84 85 86 87 88 89 91 92 93 94 95 96 98 99 100 101 102 103 103 104 104 105 105 105 105 104 104 104 104 104 104 104 104 104 104 104 104 104 103 103 103 103 103 103 103 102 102 102 101 101 101 100 101 101 102 102 103 104 105 106 107 107 107 108 108 108
61 63 64 65 66 67 68 69 70 72 73 75 77 79 81 82 83 84 84 85 85 84 83 83 82 82 82 82 83 83 84 86 87 88 89 91 92 93 94 95 96 98 99 100 101 103 104 104 105 105 106 106 106 106 105 105 105 105 105 105 105 106 106 106 105 105 105 104 104 103 103 103 103 103 102 102 103 103 103 103 103 103 102 102 102 103 103 104 105 106 107 108 110 110 110 110 110
62 63 65 66 68 69 70 71 73 74 76 78 80 81 83 83 83 84 84 83 83 82 82 82 82 82 82 83 84 85 86 88 89 90 91 93 94 95 96 98 99 100 101 103 104 105 106 106 106 106 106 107 106 106 106 106 106 107 107 107 108 108 107 107 106 106 105 104 104 103 103 103 103 103 103 103 103 103 103 104 104 105 105 105 104 104 104 105 106 106 107 109 110 112 113 113 113
64 65 67 68 70 71 72 74 75 77 79 80 82 83 84 83 83 82 82 82 81 81 81 82 82 83 83 85 86 87 89 90 91 92 93 95 96 98 99 100 101 103 104 105 106 106 106 107 107 107 107 107 107 107 107 107 108 108 108 109 108 108 108 107 107 106 105 105 104 104 104 104 104 104 104 104 104 104 105 105 105 106 106 107 107 107 107 107 107 108 109 109 110 112 113 115 115
67 68 69 71 72 74 75 77 78 79 80 82 83 84 84 83 82 81 81 81 81 82 82 83 84 84 85 86 88 89 91 92 93 95 96 97 99 100 101 103 104 105 106 106 106 107 107 107 107 107 107 108 108 108 108 109 109 109 109 109 108 108 107 107 107 107 107 107 106 106 106 106 106 106 106 106 106 106 106 107 107 107 108 108 109 109 109 109 109 109 110 111 111 112 113 115 116
69 70 72 73 75 76 78 79 80 80 81 82 83 83 84 82 81 80 81 82 82 83 84 84 85 86 87 88 89 91 93 94 96 97 98 100 101 102 104 104 105 106 106 106 107 107 107 108 108 108 108 109 109 109 110 110 110 109 109 108 108 108 107 107 108 108 108 109 109 108 108 108 108 108 108 108 108 108 108 108 109 109 109 110 110 110 110 111 111 111 111 112 113 113 114 115 117
72 73 74 75 77 78 79 79 80 80 81 81 82 82 83 82 81 81 82 83 83 84 85 86 86 87 89 90 92 94 95 97 98 100 101 102 103 104 105 105 105 105 106 106 107 108 108 108 109 109 109 110 110 110 110 110 110 109 108 108 108 109 109 109 109 109 110 110 110 110 110 109 109 109 109 109 108 108 108 109 109 110 110 111 111 112 112 112 112 113 113 113 114 114 115 116 117
74 75 76 77 77 78 79 79 79 80 80 79 80 81 81 82 82 83 83 84 84 85 86 87 88 89 91 93 95 96 98 99 100 102 103 103 104 104 105 105 105 106 106 107 107 108 108 109 109 110 110 110 111 110 110 109 109 109 109 109 109 110 110 110 110 110 110 110 109 109 109 109 108 108 108 108 108 107 108 108 108 109 110 111 112 112 113 113 113 114 114 115 115 115 116 117 118
75 76 76 77 77 78 78 78 78 78 77 77 78 80 82 83 83 83 84 85 86 87 88 89 90 92 94 95 97 98 99 100 101 102 103 103 103 104 104 105 105 106 107 107 108 108 109 109 109 110 110 110 110 110 109 109 110 110 110 110 110 110 110 110 109 109 109 108 108 107 107 106 106 107 106 106 106 106 106 106 107 107 108 109 110 111 112 113 114 114 115 115 116 117 117 118 119
75 75 76 76 77 76 76 76 75 76 76 77 79 81 83 84 84 84 85 86 87 88 89 91 92 94 96 97 98 99 100 101 101 102 103 103 103 104 104 105 106 107 107 107 108 108 109 109 109 110 109 109 109 110 110 110 111 111 110 110 110 110 109 109 108 107 107 107 106 105 105 104 104 104 104 105 105 105 105 105 106 106 107 108 109 110 111 112 113 114 115 115 116 117 118 119 120
73 74 74 74 74 74 74 74 75 76 78 79 81 82 83 84 84 85 86 87 88 89 91 92 94 96 97 98 99 99 100 101 101 102 102 103 104 105 105 106 106 107 107 108 108 108 109 109 109 109 109 110 110 111 111 111 111 111 110 110 109 108 108 107 106 106 105 105 104 104 104 103 103 103 103 104 105 106 106 107 107 107 108 109 110 111 112 113 113 114 115 116 117 118 119 120 121
70 70 71 72 73 73 74 75 76 78 79 80 82 82 83 84 85 87 88 89 90 91 92 94 95 96 97 98 98 99 100 100 101 102 103 104 105 105 106 106 106 106 107 108 108 108 108 108 108 109 110 110 111 111 111 111 110 110 109 109 108 107 107 106 106 105 105 105 105 105 105 105 105 105 105 105 106 107 108 109 109 109 110 112 112 113 114 115 115 116 116 117 118 119 120 121 122
68 69 70 71 73 74 75 76 78 79 80 81 82 84 85 86 87 88 89 90 91 92 93 94 95 96 97 98 98 99 100 101 102 103 104 104 105 105 105 106 106 107 107 108 108 108 108 109 109 110 110 110 110 110 109 108 108 108 107 107 107 107 106 106 106 105 105 106 106 107 107 107 108 107 107 107 107 107 108 109 110 111 112 113 114 115 116 117 117 118 118 118 119 120 121 121 123
68 69 71 72 73 75 76 77 78 79 81 82 84 85 86 87 88 89 90 91 91 92 92 94 95 97 97 98 99 100 101 102 103 103 104 105 105 105 106 106 107 107 107 107 107 108 108 109 109 109 109 108 108 107 107 106 106 106 106 107 107 107 107 107 106 106 107 107 107 108 108 109 109 110 110 110 108 107 107 108 110 112 113 113 114 115 116 117 118 119 120 120 120 120 121 122 123
69 70 71 73 74 75 76 77 78 79 81 82 84 85 86 87 88 89 89 90 91 92 93 95 96 98 98 99 100 101 102 103 103 104 105 105 106 106 107 107 107 107 107 107 108 108 108 108 108 107 106 106 105 105 105 105 105 106 107 108 108 108 108 107 106 105 105 106 106 106 107 107 108 109 110 110 110 108 107 108 109 111 112 112 113 113 113 114 115 117 118 120 121 121 122 123 123
68 69 71 72 73 74 75 76 78 79 80 81 83 85 86 88 89 89 90 91 92 93 94 96 98 99 99 100 101 102 103 103 104 105 105 106 107 107 107 107 107 108 108 108 108 108 108 107 106 105 105 104 104 104 104 105 105 106 106 107 107 107 106 105 103 102 101 101 102 102 102 102 103 104 105 106 107 106 106 106 107 109 111 112 112 112 111 111 111 112 113 115 117 119 121 122 123
68 69 70 71 72 74 75 76 77 79 80 81 82 84 87 89 90 90 91 92 93 94 95 98 99 100 101 102 103 103 104 104 105 105 106 106 106 107 107 107 108 108 109 108 108 107 106 105 104 103 103 103 103 103 104 104 105 105 105 105 105 104 103 101 100 99 98 97 97 98 98 98 98 99 99 100 101 101 101 101 102 104 106 109 110 111 111 109 108 108 108 110 112 114 116 117 119
69 70 71 72 73 75 76 77 78 79 81 81 82 85 87 90 91 91 92 93 94 95 97 99 100 101 102 103 104 104 104 105 105 106 106 106 106 106 107 108 108 108 108 107 105 104 103 103 102 102 102 103 103 103 104 104 105 105 104 103 103 102 100 99 98 97 96 96 95 95 95 95 95 96 96 96 96 96 97 97 98 100 102 104 106 107 107 107 106 106 106 106 107 109 110 112 113
69 71 72 73 74 75 77 78 79 81 82 82 83 84 88 91 92 92 94 94 95 97 99 100 101 102 103 104 104 105 105 105 105 105 105 105 106 106 107 107 107 106 105 103 102 101 101 101 102 102 102 103 103 103 104 104 104 104 103 102 101 100 99 98 97 97 96 95 94 94 94 93 93 93 93 92 92 92 92 92 93 96 98 100 102 103 104 103 102 103 103 104 104 105 106 107 108
70 71 73 74 75 76 78 79 80 81 82 83 84 84 88 92 93 93 95 95 96 98 100 101 102 103 104 104 105 105 105 104 104 104 104 105 105 105 105 104 103 102 100 99 99 99 100 100 101 102 102 102 103 103 104 104 104 104 103 101 100 99 98 97 97 97 96 95 94 93 93 92 91 91 90 89 89 89 89 88 89 90 93 95 98 100 101 101 100 100 100 101 101 101 101 102 103
72 73 74 75 76 77 78 79 81 82 83 85 85 85 88 92 93 94 96 96 97 99 100 101 102 103 104 104 103 103 103 103 103 103 103 103 103 102 101 99 98 97 96 96 97 97 98 99 100 101 101 102 102 102 103 104 104 104 102 101 99 98 97 97 97 97 96 95 94 93 91 90 89 88 88 87 87 86 86 86 86 86 88 90 92 95 97 98 98 99 99 99 98 98 98 98 99
Wind_Direction
248 249 250 250 252 252 252 253 257 257 256 256 257 260 263 264 265 265 265 266 266 268 269 270 271 273 274 276 277 279 282 283 283 281 279 278 279 279 279 279 279 280 281 282 281 280 282 282 283 285 290 293 290 288 288 288 288 288 288 288 288 287 287 287 286 286 285 284 283 282 281 280 279 278 278 277 277 275 274 272 271 269 266 264 262 260 258 257 254 252 250 248 247 245 245 244 244
249 250 250 250 252 253 252 253 258 259 259 258 258 261 265 266 266 267 268 267 267 268 269 270 271 274 276 277 279 280 281 282 282 281 278 278 278 279 279 280 280 281 281 281 280 281 281 282 285 289 292 292 290 289 289 289 289 289 289 288 288 287 287 287 286 285 284 283 282 281 280 279 278 277 275 274 274 274 273 272 271 269 267 265 263 261 259 257 254 252 251 249 248 247 246 245 244
248 249 250 250 252 254 253 253 258 260 260 260 259 262 266 267 267 269 271 269 268 269 269 270 273 275 277 278 279 279 280 281 281 280 279 278 278 279 279 280 280 280 280 280 281 281 282 284 288 291 292 291 290 290 290 290 290 290 289 289 288 287 287 286 286 285 285 284 283 281 280 278 277 276 274 272 272 271 271 271 270 268 267 266 264 262 259 257 255 253 251 249 248 247 246 245 243
247 248 249 251 253 255 254 253 258 261 261 261 259 262 267 268 268 269 271 270 269 269 270 272 274 275 276 277 278 279 280 281 281 281 280 279 279 279 279 280 279 279 280 280 281 282 283 286 290 292 291 289 289 289 289 290 290 290 289 289 288 288 287 287 286 286 285 284 283 282 280 279 277 275 274 272 271 270 269 269 268 268 266 265 263 261 259 257 255 253 251 248 247 246 245 244 243
249 250 251 253 254 255 254 253 257 261 262 262 260 263 266 266 266 267 268 267 267 269 271 273 275 275 276 277 277 278 280 280 280 280 279 279 279 279 279 279 279 279 280 281 282 283 286 288 290 292 290 288 288 289 290 290 290 290 289 289 288 288 288 287 286 286 286 285 283 281 280 279 278 276 273 272 270 269 268 267 267 267 266 265 263 260 258 257 255 253 251 249 246 245 245 244 242
250 252 253 254 254 255 254 253 258 262 263 262 261 264 266 266 266 266 266 266 267 270 272 273 274 275 276 277 278 279 280 280 279 279 279 279 279 279 279 279 279 279 280 282 283 285 287 289 290 291 289 288 289 289 290 290 290 290 289 289 288 288 288 288 287 286 286 284 283 281 280 278 277 275 273 270 268 267 267 267 266 266 265 264 262 260 257 255 254 252 251 249 247 245 245 245 244
250 253 254 254 254 255 253 254 259 263 263 262 262 264 265 265 266 266 266 267 269 270 272 272 273 274 276 277 278 279 279 279 279 279 278 278 277 278 278 278 279 280 281 283 284 286 288 289 290 290 289 288 289 290 290 290 290 290 289 289 289 288 288 288 287 286 285 284 282 281 279 278 277 275 272 269 266 265 265 264 264 263 263 263 261 259 257 254 252 251 249 248 247 246 244 244 244
250 254 254 254 254 253 253 255 260 262 263 262 263 264 265 265 265 265 266 268 269 270 271 272 273 275 277 278 278 278 278 278 278 277 277 277 277 277 277 278 279 280 282 284 286 287 288 289 290 289 288 289 290 290 290 290 290 290 290 289 289 289 288 288 287 285 284 283 281 280 279 278 277 275 272 269 266 264 262 260 260 258 258 258 257 256 255 254 252 250 248 247 247 246 245 244 243
250 254 254 254 254 253 252 256 260 262 262 262 264 265 266 265 265 266 267 268 269 270 271 273 275 276 278 278 277 276 276 276 275 275 276 276 276 277 278 279 280 282 283 285 286 287 288 289 289 288 288 289 290 289 290 290 290 290 290 290 289 289 288 287 286 285 283 282 281 280 279 278 276 274 271 268 266 262 259 257 257 255 252 252 252 253 253 253 252 250 249 247 246 246 246 245 243
251 253 253 253 253 253 253 256 260 262 262 262 264 266 265 265 266 267 269 270 271 272 273 274 275 276 276 275 275 274 274 274 274 275 275 276 277 278 279 280 282 283 284 285 286 287 288 288 288 288 289 289 289 289 289 290 290 290 291 291 290 289 289 288 286 285 284 282 281 280 279 277 274 272 270 268 265 261 258 255 254 254 251 250 250 250 252 252 252 250 249 248 246 246 247 246 244
251 253 253 253 253 254 254 257 260 261 262 263 264 264 264 264 266 268 270 271 272 272 272 272 272 272 272 272 272 273 273 274 275 275 276 277 278 279 281 282 283 284 285 286 286 287 287 287 287 288 288 288 288 289 289 290 291 291 291 291 291 290 289 288 286 285 284 283 281 280 278 277 274 271 269 267 265 261 258 254 252 251 251 251 250 250 251 252 252 251 249 248 247 246 246 246 245
251 252 252 252 253 254 255 259 261 261 261 262 262 262 263 264 267 269 271 272 272 272 272 271 270 270 271 271 272 273 273 274 275 276 278 279 280 281 282 283 284 285 286 286 286 286 286 286 287 287 287 288 289 289 291 292 292 292 292 291 291 290 288 287 286 285 284 283 282 281 279 277 274 271 268 266 264 262 258 254 252 250 249 250 250 250 250 251 252 252 251 249 247 247 246 245 245
250 251 251 252 253 254 256 259 260 259 260 260 261 262 264 266 268 270 271 272 273 273 272 271 271 272 272 272 273 273 274 275 276 277 278 280 281 282 283 283 284 285 285 285 286 286 286 286 286 287 287 289 290 291 293 293 293 293 292 292 291 289 288 287 285 284 284 283 282 281 279 277 274 271 267 265 263 261 257 254 251 249 248 248 248 249 250 250 250 251 251 251 249 247 247 246 245
249 250 251 252 253 255 256 257 257 257 259 261 263 265 267 269 270 270 271 272 272 272 272 272 272 272 273 273 274 274 275 276 277 278 279 280 281 282 283 284 284 284 284 285 285 285 286 286 287 288 289 290 292 293 294 294 294 293 292 291 290 289 287 286 285 284 283 282 282 280 278 276 273 270 267 264 262 260 257 253 251 249 247 246 247 247 248 250 250 249 249 250 250 249 248 247 247
248 250 251 252 254 255 256 256 256 258 261 263 265 267 268 269 270 270 270 271 271 271 271 272 273 273 274 274 275 276 277 278 279 280 281 282 283 284 284 284 285 284 284 285 285 286 287 287 289 290 291 292 293 294 294 294 293 292 292 290 289 288 287 286 285 284 283 282 281 279 277 275 273 270 266 263 261 259 257 253 251 249 247 244 245 245 246 247 249 249 248 248 249 249 248 248 248
249 250 252 253 254 256 257 257 258 260 262 264 266 267 267 268 268 268 269 269 270 271 272 273 274 274 275 276 277 278 279 280 281 282 283 284 285 285 285 285 285 285 286 286 287 288 289 290 291 292 293 293 294 293 293 293 292 291 290 289 289 288 287 286 286 285 283 282 281 278 276 274 272 269 266 262 260 258 256 253 250 248 247 245 244 244 244 245 247 248 248 247 248 248 248 248 249
251 252 252 253 255 256 257 258 260 261 263 264 264 265 266 266 267 268 268 270 270 272 273 274 276 276 277 278 279 279 280 281 282 284 285 286 286 286 286 286 286 287 287 288 289 290 291 292 293 293 293 293 293 293 292 292 291 290 290 289 289 288 287 286 286 285 284 282 281 278 276 274 272 269 265 262 260 258 256 254 250 247 246 247 246 244 244 245 245 247 248 248 247 247 248 248 248
252 253 253 254 255 256 257 259 260 261 263 264 265 266 267 268 269 270 271 272 273 274 276 277 277 278 278 279 280 280 281 282 284 285 286 286 286 286 287 287 287 288 289 290 290 291 292 292 293 293 293 292 292 292 291 291 290 290 289 289 289 288 287 286 285 284 283 282 280 278 276 274 272 269 265 262 259 257 255 254 252 248 245 246 246 245 244 244 245 245 246 247 247 247 247 248 248
253 254 255 256 257 258 258 259 261 262 263 264 265 267 268 270 271 272 273 274 275 276 277 277 277 278 279 279 280 281 282 283 284 285 286 286 286 286 287 288 288 289 290 290 291 291 292 292 292 292 292 292 291 291 291 290 290 290 289 289 289 288 287 286 285 284 283 281 280 278 277 275 273 270 266 262 258 256 254 254 253 250 247 245 245 245 245 245 244 244 244 245 246 246 247 247 248
254 255 256 257 258 259 260 261 262 263 264 265 266 267 269 271 272 273 273 274 275 275 275 275 276 277 278 279 280 281 283 284 285 285 286 286 286 287 287 288 289 289 290 290 291 291 291 291 291 291 291 291 291 290 290 290 289 289 289 288 288 287 287 286 285 284 283 282 280 278 276 275 273 271 268 264 260 256 253 252 253 252 249 247 245 244 244 244 244 244 244 244 244 245 246 247 248
255 256 257 258 259 260 261 262 264 265 266 267 268 269 270 271 271 272 272 273 273 274 274 275 276 278 279 280 281 282 283 284 285 286 286 286 287 287 288 288 289 289 290 290 291 291 291 290 290 290 290 290 290 289 289 289 288 288 288 287 287 287 286 286 285 284 283 282 280 279 276 274 272 270 268 266 262 259 255 252 251 251 251 249 246 245 244 244 244 244 245 245 245 245 245 246 247
255 257 258 259 260 261 262 264 265 266 267 268 269 269 270 270 270 270 271 272 273 273 275 276 277 278 279 280 281 282 283 284 285 286 286 287 287 287 288 289 289 290 290 290 290 290 290 290 290 289 289 289 288 288 288 287 287 287 287 287 286 286 286 286 285 284 283 282 281 279 278 275 273 271 268 265 263 260 257 255 252 251 250 250 248 246 245 244 244 244 244 245 245 245 245 246 247
256 258 259 260 261 262 263 264 265 266 267 268 268 269 269 269 270 271 272 273 274 275 276 277 278 279 279 280 281 282 283 284 285 286 286 287 287 288 288 289 289 289 289 289 289 289 289 289 288 288 288 287 287 287 287 287 287 287 287 286 286 286 286 286 285 285 284 283 281 280 278 277 275 272 269 266 263 261 259 257 254 252 251 250 249 248 246 245 245 244 244 244 244 245 245 246 246
257 259 260 261 262 263 263 264 265 266 267 268 269 269 270 270 270 272 273 274 275 276 277 278 279 279 280 281 282 282 283 284 285 286 286 287 287 288 288 288 288 288 288 288 288 288 288 288 288 287 287 287 288 288 288 288 287 287 287 286 286 285 285 285 285 284 284 283 282 281 279 278 276 274 272 268 265 262 260 258 256 254 252 250 249 248 247 246 245 245 244 243 243 244 245 246 246
258 259 260 261 262 263 264 265 266 267 267 268 269 270 270 271 272 273 274 276 276 277 277 278 279 280 281 281 282 282 283 284 285 285 286 286 287 287 287 287 287 287 287 287 287 287 287 287 287 287 288 288 288 289 289 288 288 287 287 286 286 285 285 284 284 283 283 282 281 280 279 278 276 275 273 271 268 264 261 259 257 255 254 252 250 249 248 247 246 245 245 244 242 243 244 245 246
260 261 262 264 265 265 265 266 266 267 268 269 270 270 271 273 274 275 277 277 277 277 278 278 279 280 280 281 282 282 283 284 284 285 285 286 286 286 286 286 286 286 286 286 286 286 286 286 286 287 287 288 288 288 288 288 287 287 287 286 286 285 285 284 283 282 281 280 279 279 278 277 276 275 274 272 271 268 264 261 258 256 254 253 252 250 249 248 247 246 245 245 244 243 243 244 244
262 263 264 264 265 265 265 265 266 267 269 270 271 272 273 274 275 276 277 277 276 277 277 278 278 279 280 281 281 282 283 283 284 284 284 285 285 285 285 285 285 285 285 285 285 285 286 286 286 287 287 286 286 286 286 286 286 286 285 285 284 284 283 283 282 281 280 279 279 278 277 276 276 275 274 273 271 270 267 264 260 257 255 253 252 252 250 249 248 247 246 245 245 244 243 243 244
262 262 263 263 263 263 264 264 265 267 268 270 271 272 273 274 274 275 276 276 275 276 277 278 278 279 280 280 281 282 282 283 283 284 284 284 284 284 284 284 285 285 285 285 285 285 286 286 286 286 286 286 285 285 285 285 285 285 284 284 283 283 282 282 281 280 280 279 278 277 277 276 275 274 274 273 272 270 269 266 264 260 257 254 253 252 251 250 249 248 248 247 246 245 244 244 243
260 260 261 261 262 263 264 265 266 267 269 270 270 271 272 273 274 275 275 275 276 277 278 278 279 279 279 280 281 281 282 282 283 283 283 284 284 284 284 284 284 284 284 285 285 286 286 286 286 286 286 286 286 286 286 285 285 285 285 284 284 283 283 282 281 280 279 278 277 276 276 275 274 273 272 272 271 271 270 268 266 263 260 257 254 253 251 250 249 248 248 248 247 246 245 244 244
258 259 261 262 263 265 266 266 267 268 269 270 270 271 272 273 274 275 275 276 276 277 277 278 278 279 279 280 280 281 282 282 283 283 283 283 283 283 283 283 284 284 284 285 285 285 286 286 286 286 286 286 286 286 286 286 286 286 285 285 285 284 284 283 282 281 279 278 277 276 275 274 274 273 272 271 270 270 269 269 267 265 263 260 257 255 253 251 250 249 248 248 248 247 246 245 244
259 261 262 264 265 266 266 267 268 268 269 270 271 272 273 273 274 274 275 275 276 276 277 277 278 278 279 280 280 281 282 282 282 282 282 282 282 283 283 283 283 284 284 285 285 285 286 286 286 286 286 286 286 286 286 286 286 286 285 285 284 284 284 283 283 282 281 280 279 278 276 275 274 273 272 271 270 269 269 268 267 266 265 262 260 257 255 253 251 249 249 248 248 247 246 246 245
261 262 263 264 265 266 266 267 268 269 269 270 271 271 272 272 273 273 274 274 275 275 276 276 277 278 279 280 281 281 282 282 282 282 282 282 282 282 282 283 283 284 284 285 285 286 286 286 286 287 287 287 286 286 286 286 285 285 285 285 284 284 283 283 283 282 282 281 280 279 278 277 276 275 274 272 271 270 269 268 267 267 265 264 262 259 257 255 252 250 249 248 248 248 247 246 245
261 262 263 264 265 266 266 267 268 269 269 270 270 270 270 271 272 272 273 273 273 274 275 276 277 278 279 280 280 281 281 282 282 282 281 281 282 282 283 283 284 284 285 285 286 286 286 287 287 287 287 287 286 286 285 285 285 285 285 285 284 284 284 283 283 282 281 281 280 280 279 278 277 276 275 274 272 271 270 269 268 267 266 265 263 261 259 257 255 252 249 248 248 248 248 247 246
262 263 263 264 265 266 266 267 268 268 268 269 269 270 270 271 271 271 272 273 274 274 275 276 278 278 279 280 280 281 281 282 281 281 281 281 282 282 283 284 284 285 285 286 286 287 287 287 287 287 287 286 286 286 286 285 285 285 285 285 285 284 284 283 283 282 282 281 280 280 279 278 278 277 276 274 273 272 270 269 268 266 265 264 264 262 260 259 257 255 252 249 247 247 247 247 247
262 263 264 264 265 265 266 266 266 267 267 268 269 270 270 271 271 271 272 273 274 275 276 277 278 279 280 281 281 281 281 281 281 281 281 282 282 283 284 284 284 285 286 286 287 287 287 287 287 287 287 286 286 286 286 286 286 286 285 285 285 284 284 283 282 282 281 281 280 279 279 278 277 277 276 275 273 272 270 269 267 266 265 264 263 262 261 260 258 256 254 252 249 247 246 247 247
262 262 263 264 264 265 265 266 266 267 268 268 269 270 270 271 271 272 273 274 275 276 277 278 279 280 281 281 281 281 280 280 280 281 282 282 283 283 284 284 285 285 286 286 287 287 287 287 287 287 287 287 287 287 286 286 286 286 285 285 284 284 283 282 281 281 280 280 280 279 279 278 277 277 276 275 273 272 271 269 267 266 264 263 262 261 260 260 259 258 256 254 252 249 247 246 246
261 262 263 263 264 265 266 266 267 267 269 269 270 271 272 272 273 274 275 277 278 279 279 280 280 281 280 280 280 280 280 280 280 281 282 282 283 283 284 284 285 285 286 286 287 287 287 288 288 288 288 288 287 287 287 287 286 286 285 285 284 283 283 282 282 281 281 281 280 279 279 278 278 277 276 275 274 272 271 269 268 266 265 263 262 261 259 258 258 258 257 256 254 252 250 247 246
262 263 263 264 265 266 267 267 268 269 270 270 271 272 273 274 275 276 278 279 280 280 281 281 280 280 279 279 279 279 280 280 281 281 282 282 283 283 284 284 285 285 286 287 287 288 288 288 288 288 288 288 287 287 287 287 286 286 286 285 285 284 284 283 282 282 281 281 280 279 278 277 277 276 275 274 274 273 271 270 268 267 265 264 262 261 260 258 257 257 256 256 255 253 252 250 248
263 264 265 266 267 267 268 269 270 270 271 272 272 273 275 276 277 278 279 280 280 280 280 279 279 278 278 278 279 279 280 281 281 281 282 282 283 284 284 285 286 286 287 287 288 288 288 288 288 288 288 288 287 287 287 287 287 287 287 286 286 285 284 283 283 282 281 280 279 278 277 276 275 275 274 273 272 272 271 270 269 267 266 264 263 261 260 259 258 256 256 255 255 254 253 251 249
264 265 266 267 268 269 270 271 271 272 273 274 275 276 276 277 278 279 280 280 280 279 278 278 278 278 278 279 279 280 280 281 281 282 282 283 284 284 285 286 286 287 287 288 288 288 288 288 288 288 288 288 288 288 288 288 287 287 287 286 286 285 284 284 283 282 281 280 279 278 277 276 275 274 273 272 271 270 270 269 268 267 266 265 263 262 260 259 258 257 256 255 254 254 253 252 251
264 266 267 268 269 270 271 272 273 274 275 276 277 277 277 278 279 279 280 279 279 278 278 278 278 279 280 280 281 281 281 282 282 283 284 284 285 286 286 286 287 287 287 288 288 288 288 288 288 288 288 288 288 288 288 288 287 287 287 286 286 285 284 284 283 282 282 281 280 279 278 277 276 275 274 273 271 270 269 268 267 267 266 265 264 263 261 260 258 257 256 255 254 253 253 253 252
266 267 268 269 271 272 273 274 275 275 276 277 277 277 278 278 279 279 279 279 278 278 278 279 280 280 281 281 282 282 282 283 283 284 285 285 286 286 286 287 287 288 288 288 288 288 288 288 288 288 288 288 288 288 288 287 287 287 287 286 286 285 285 284 284 283 282 282 281 280 279 278 276 275 274 273 272 271 270 269 268 267 266 265 264 263 262 261 259 258 256 255 254 253 253 252 252
268 269 270 271 273 273 274 275 275 276 276 277 277 278 278 278 279 278 278 278 278 279 279 280 281 281 282 282 282 283 283 284 285 285 285 286 286 286 287 287 288 288 288 288 288 288 288 288 288 288 288 288 288 288 288 288 288 287 287 286 286 286 285 284 284 283 283 282 281 280 279 278 277 276 274 273 272 272 271 270 269 268 267 266 265 264 263 262 260 259 257 256 255 254 253 252 252
270 271 272 272 273 273 274 274 275 276 276 277 278 278 278 278 278 278 278 278 279 280 281 281 282 282 283 283 283 284 284 285 285 286 286 286 287 287 288 288 288 288 288 288 288 289 289 289 289 289 288 288 288 288 288 288 288 287 287 287 286 286 285 285 284 283 282 281 280 279 279 278 277 276 275 274 273 272 271 270 269 269 268 267 266 265 263 262 261 260 259 257 256 254 253 252 251
271 271 272 272 273 273 274 275 276 276 277 277 278 278 278 277 278 278 279 280 281 281 282 282 283 283 284 284 284 285 285 285 286 286 287 287 288 288 288 289 289 289 289 289 289 289 289 289 289 289 289 289 289 289 289 288 288 288 288 287 287 286 285 284 283 282 282 281 280 279 279 278 278 277 276 275 274 273 272 271 270 269 268 267 266 265 264 263 262 260 259 258 257 256 254 253 252
271 272 272 273 273 274 275 276 276 277 277 277 277 277 277 277 279 280 281 282 282 282 283 283 284 284 284 284 285 285 286 286 287 287 288 288 288 289 289 289 289 289 289 289 289 289 289 289 289 289 289 289 290 290 289 289 289 288 288 287 287 286 285 285 284 283 282 282 281 280 280 279 279 278 278 277 275 274 273 272 270 269 268 266 265 265 264 263 262 261 259 258 257 256 255 254 253
272 272 273 273 274 274 275 275 276 276 276 276 277 277 278 279 281 282 282 282 283 283 284 284 284 284 285 285 285 286 287 287 288 288 288 289 289 289 289 289 289 290 290 290 290 290 290 290 290 290 290 290 290 290 290 290 290 289 289 288 288 287 286 286 285 284 284 283 283 282 281 281 280 279 278 277 276 275 274 272 271 269 268 267 265 264 263 262 261 260 259 258 257 256 255 254 253
272 273 273 274 274 274 275 275 276 276 277 277 278 279 280 281 282 283 283 283 283 284 284 284 285 285 285 286 286 287 287 288 288 288 289 289 289 289 289 290 290 290 290 290 290 290 291 291 291 291 291 291 291 291 291 291 291 290 290 289 288 288 287 287 286 286 286 285 285 284 283 282 281 280 279 277 276 275 274 272 271 269 268 267 265 264 262 261 260 259 258 257 256 255 254 253 253
273 273 273 274 274 275 275 276 276 277 278 279 280 281 282 282 283 283 283 284 284 284 285 285 285 286 286 286 287 287 288 288 288 289 289 289 289 289 290 290 290 291 291 291 291 291 292 292 292 292 292 292 292 292 292 292 291 291 290 290 290 289 289 289 289 289 288 288 287 286 285 284 282 280 278 277 275 274 273 272 270 269 268 266 265 264 263 262 260 259 257 256 256 255 253 253 252
273 274 274 275 275 276 276 277 278 278 280 281 281 282 282 283 283 283 283 284 284 285 285 286 286 286 287 287 288 288 288 288 289 289 289 289 290 290 291 291 291 292 292 292 292 292 293 293 293 293 293 292 292 292 292 292 292 291 291 291 291 291 291 291 291 291 290 290 289 287 286 284 282 280 278 276 274 273 272 271 270 269 267 266 265 264 263 263 262 261 259 258 256 255 254 253 252
274 275 275 276 276 277 277 278 279 280 281 281 282 282 283 283 283 283 284 284 285 286 286 287 287 287 287 288 288 288 288 289 289 290 290 291 291 292 292 292 293 293 293 293 293 293 293 293 293 293 293 293 293 293 293 293 293 293 293 293 293 293 293 292 292 292 291 290 288 287 285 284 282 281 279 277 276 274 273 272 271 270 268 267 265 264 263 262 262 261 261 260 259 257 256 255 253
275 275 275 276 277 278 278 279 280 281 281 282 282 282 283 283 283 284 284 285 286 286 287 287 287 287 288 288 288 288 289 290 290 291 292 292 293 293 293 293 293 293 293 293 294 294 294 294 294 294 294 294 294 294 294 294 294 294 294 294 293 293 293 292 291 290 289 287 286 284 282 281 280 279 278 278 277 276 274 273 272 271 270 269 267 265 264 262 261 260 260 260 260 259 258 257 256
275 276 276 277 278 279 279 280 280 281 281 281 282 283 283 284 284 285 285 286 286 287 287 287 287 287 288 288 289 289 290 291 291 292 293 293 293 294 294 294 294 294 294 295 295 295 295 295 295 295 295 295 295 295 295 294 294 294 293 293 293 292 292 291 290 289 287 285 283 282 280 279 278 277 276 276 275 275 274 272 272 271 271 270 269 268 266 265 263 261 260 259 259 258 258 257 257
276 277 278 278 279 279 279 279 280 280 281 281 282 283 284 284 284 285 286 286 286 287 287 287 288 288 289 289 290 291 291 292 293 293 293 294 294 294 294 294 295 295 295 295 295 296 296 296 295 295 295 295 295 295 295 295 294 294 294 294 294 293 293 293 291 290 287 286 284 283 282 280 279 278 277 276 275 274 273 272 271 270 270 269 269 269 268 267 265 264 262 261 259 258 257 257 256
276 277 277 278 278 278 278 279 279 280 280 281 282 283 284 284 284 285 286 286 287 287 287 288 288 289 290 290 291 292 292 293 293 293 294 294 294 294 294 295 295 295 295 296 296 296 296 296 296 296 296 296 296 296 296 296 296 296 296 296 296 296 296 295 293 292 290 288 287 286 284 283 282 281 279 278 277 276 275 274 273 271 270 270 269 269 268 267 266 265 264 262 261 259 258 257 256
276 276 277 277 277 277 278 278 279 280 280 281 282 283 283 284 285 286 286 287 287 288 288 288 289 290 290 291 292 292 293 293 293 293 294 294 294 294 294 294 295 295 296 296 297 297 296 296 297 297 297 297 297 297 297 297 298 298 299 299 299 299 298 297 295 293 292 291 290 289 287 286 284 283 281 280 278 277 275 274 273 272 271 271 270 270 269 268 267 266 265 263 262 260 259 258 257
276 276 276 277 277 278 278 279 280 280 281 282 282 283 283 284 285 286 286 287 288 288 288 289 290 290 291 291 292 292 292 293 293 293 294 294 294 294 294 294 295 296 296 296 296 296 296 297 297 297 297 297 298 298 299 299 300 301 301 302 302 301 299 298 296 295 294 293 292 291 290 288 287 285 284 282 280 278 277 275 273 271 270 270 270 270 270 269 268 267 266 264 263 262 261 259 258
277 277 277 278 278 279 280 280 281 282 282 283 283 283 283 284 285 286 286 287 288 288 288 289 289 290 290 291 291 292 292 293 293 293 293 293 293 294 294 295 295 296 296 296 296 296 296 297 297 297 297 298 299 300 301 302 303 303 304 304 303 302 300 299 298 297 296 295 294 292 291 289 288 286 285 283 282 280 278 276 274 272 270 269 268 268 269 269 269 268 267 266 264 263 262 261 260